Winston-Salem, NC

1:32 PM EDT on July 21, 2017 (GMT -0400)
Smith Reynolds

Weather History for KINT - November, 2012

Change the Weather History Date:

Sunday, November 4, 2012

  Actual Average Record
Temperature  
Mean Temperature 48 °F -  
Max Temperature 55 °F 62 °F 83 °F (1974)
Min Temperature 42 °F 43 °F 21 °F (1966)
Degree Days  
Heating Degree Days 16    
Moisture  
Dew Point 38 °F    
Average Humidity 67    
Maximum Humidity 85    
Minimum Humidity 52    
Precipitation  
Precipitation 0.00 in - - ()
Sea Level Pressure  
Sea Level Pressure 30.02 in    
Wind  
Wind Speed 4 mph (NE)    
Max Wind Speed 9 mph    
Max Gust Speed -    
Visibility 10 miles    
Events Rain    
Averages and records for this station are not official NWS values.
T = Trace of Precipitation, MM = Missing Value Source: NWS Daily Summary

Daily Weather History Graph

Daily Weather History Graph

Search for Another Location

Airport or City:

Trip Planner

Search our weather history database for the weather conditions in past years. The results will help you decide how hot, cold, wet, or windy it might be!

Date:

Astronomy

Nov. 04, 2012 Rise Set
Actual Time 6:47 AM EST 5:21 PM EST
Civil Twilight 6:20 AM EST 5:48 PM EST
Nautical Twilight 5:49 AM EST 6:18 PM EST
Astronomical Twilight 5:19 AM EST 6:48 PM EST
Moon 9:59 PM EST (11/4) 11:27 AM EST (11/4)
Length of Visible Light 11h 27m
Length of Day
10h 34m
Waning Gibbous, 72% of the Moon is Illuminated
Nov 4
Waning Gibbous
Nov 6
Last Quarter
Nov 13
New
Nov 20
First Quarter
Nov 28
Full

Hourly Weather History & Observations

Time (EST) Temp. Windchill Dew Point Humidity Pressure Visibility Wind Dir Wind Speed Gust Speed Precip Events Conditions
12:54 AM 50.0 °F - 34.0 °F 54% 30.06 in 10.0 mi Calm Calm - N/A   Overcast
1:54 AM 48.9 °F - 32.0 °F 52% 30.05 in 10.0 mi ENE 6.9 mph - N/A   Mostly Cloudy
1:54 AM 46.9 °F - 35.1 °F 63% 30.04 in 10.0 mi ENE 3.5 mph - 0.00 in Rain Light Rain
2:54 AM 48.0 °F - 33.1 °F 56% 30.02 in 10.0 mi East 6.9 mph - 0.00 in   Mostly Cloudy
3:54 AM 46.0 °F 43.1 °F 33.1 °F 61% 30.02 in 10.0 mi NNE 5.8 mph - N/A   Clear
4:54 AM 44.1 °F 40.1 °F 37.0 °F 76% 30.03 in 10.0 mi NNE 6.9 mph - N/A   Overcast
5:54 AM 43.0 °F 40.3 °F 37.9 °F 82% 30.04 in 10.0 mi NE 4.6 mph - N/A   Overcast
6:54 AM 42.1 °F 39.2 °F 37.0 °F 82% 30.04 in 10.0 mi NE 4.6 mph - N/A   Mostly Cloudy
7:54 AM 42.1 °F 38.4 °F 37.9 °F 85% 30.06 in 10.0 mi NE 5.8 mph - N/A   Clear
8:31 AM 42.8 °F 37.5 °F 37.4 °F 81% 30.05 in 10.0 mi NE 9.2 mph - N/A   Mostly Cloudy
8:54 AM 45.0 °F 40.6 °F 37.0 °F 74% 30.05 in 10.0 mi NE 8.1 mph - N/A   Overcast
9:54 AM 46.9 °F - 37.0 °F 68% 30.05 in 10.0 mi North 9.2 mph - N/A   Overcast
10:54 AM 48.9 °F - 37.9 °F 66% 30.04 in 10.0 mi Variable 4.6 mph - N/A   Overcast
11:54 AM 51.1 °F - 39.0 °F 63% 30.02 in 10.0 mi Calm Calm - N/A   Overcast
12:09 PM 51.8 °F - 39.2 °F 62% 30.02 in 10.0 mi NE 4.6 mph - N/A   Overcast
12:54 PM 54.0 °F - 39.9 °F 59% 29.99 in 10.0 mi North 5.8 mph - N/A   Overcast
1:54 PM 55.9 °F - 39.9 °F 55% 29.98 in 10.0 mi Calm Calm - N/A   Partly Cloudy
2:54 PM 55.9 °F - 39.0 °F 53% 29.98 in 10.0 mi North 4.6 mph - N/A   Clear
3:54 PM 55.0 °F - 39.0 °F 55% 29.98 in 10.0 mi NE 4.6 mph - N/A   Clear
4:54 PM 53.1 °F - 39.0 °F 59% 29.99 in 10.0 mi Calm Calm - N/A   Clear
5:54 PM 50.0 °F - 39.9 °F 68% 29.99 in 10.0 mi NE 3.5 mph - N/A   Clear
6:54 PM 48.9 °F - 39.9 °F 71% 30.01 in 10.0 mi Calm Calm - N/A   Mostly Cloudy
7:54 PM 48.0 °F - 39.0 °F 71% 30.01 in 10.0 mi North 4.6 mph - N/A   Overcast
8:54 PM 46.9 °F - 39.0 °F 74% 30.03 in 10.0 mi Calm Calm - N/A   Mostly Cloudy
9:54 PM 45.0 °F 43.5 °F 39.0 °F 80% 30.03 in 10.0 mi NE 3.5 mph - N/A   Scattered Clouds
10:54 PM 46.0 °F 43.1 °F 37.0 °F 71% 30.03 in 10.0 mi NNE 5.8 mph - N/A   Mostly Cloudy